segment_id,date_local,uptime,ped_lft,ped_rgt,ped_total,bike_lft,bike_rgt,bike_total,car_lft,car_rgt,car_total,heavy_lft,heavy_rgt,heavy_total,v85,car_speed0,car_speed10,car_speed20,car_speed30,car_speed40,car_speed50,car_speed60,car_speed70
100024661,2017-02-01 00:00,1.0,,,,16,12,28,,,,,,,
100024661,2017-02-01 01:00,1.0,,,,7,5,12,,,,,,,
100024661,2017-02-01 02:00,1.0,,,,4,4,8,,,,,,,
100024661,2017-02-01 03:00,1.0,,,,4,3,7,,,,,,,
100024661,2017-02-01 04:00,1.0,,,,1,2,3,,,,,,,
100024661,2017-02-01 05:00,1.0,,,,6,12,18,,,,,,,
100024661,2017-02-01 06:00,1.0,,,,15,26,41,,,,,,,
100024661,2017-02-01 07:00,1.0,,,,32,65,97,,,,,,,
100024661,2017-02-01 08:00,1.0,,,,118,194,312,,,,,,,
100024661,2017-02-01 09:00,1.0,,,,185,225,410,,,,,,,
100024661,2017-02-01 10:00,1.0,,,,73,82,155,,,,,,,
100024661,2017-02-01 11:00,1.0,,,,76,60,136,,,,,,,
100024661,2017-02-01 12:00,1.0,,,,68,77,145,,,,,,,
100024661,2017-02-01 13:00,1.0,,,,63,64,127,,,,,,,
100024661,2017-02-01 14:00,1.0,,,,70,68,138,,,,,,,
100024661,2017-02-01 15:00,1.0,,,,102,80,182,,,,,,,
100024661,2017-02-01 16:00,1.0,,,,135,82,217,,,,,,,
100024661,2017-02-01 17:00,1.0,,,,147,108,255,,,,,,,
100024661,2017-02-01 18:00,1.0,,,,218,169,387,,,,,,,
100024661,2017-02-01 19:00,1.0,,,,145,148,293,,,,,,,
100024661,2017-02-01 20:00,1.0,,,,63,76,139,,,,,,,
100024661,2017-02-01 21:00,1.0,,,,51,46,97,,,,,,,
100024661,2017-02-01 22:00,1.0,,,,38,38,76,,,,,,,
100024661,2017-02-01 23:00,1.0,,,,21,29,50,,,,,,,
100024661,2017-02-02 00:00,1.0,,,,22,18,40,,,,,,,
100024661,2017-02-02 01:00,1.0,,,,13,5,18,,,,,,,
100024661,2017-02-02 02:00,1.0,,,,9,1,10,,,,,,,
100024661,2017-02-02 03:00,1.0,,,,6,4,10,,,,,,,
100024661,2017-02-02 04:00,1.0,,,,2,1,3,,,,,,,
100024661,2017-02-02 05:00,1.0,,,,6,12,18,,,,,,,
100024661,2017-02-02 06:00,1.0,,,,15,28,43,,,,,,,
100024661,2017-02-02 07:00,1.0,,,,39,57,96,,,,,,,
100024661,2017-02-02 08:00,1.0,,,,140,206,346,,,,,,,
100024661,2017-02-02 09:00,1.0,,,,194,222,416,,,,,,,
100024661,2017-02-02 10:00,1.0,,,,84,113,197,,,,,,,
100024661,2017-02-02 11:00,1.0,,,,80,62,142,,,,,,,
100024661,2017-02-02 12:00,1.0,,,,80,79,159,,,,,,,
100024661,2017-02-02 13:00,1.0,,,,89,73,162,,,,,,,
100024661,2017-02-02 14:00,1.0,,,,95,80,175,,,,,,,
100024661,2017-02-02 15:00,1.0,,,,115,103,218,,,,,,,
100024661,2017-02-02 16:00,1.0,,,,128,97,225,,,,,,,
100024661,2017-02-02 17:00,1.0,,,,165,114,279,,,,,,,
100024661,2017-02-02 18:00,1.0,,,,208,158,366,,,,,,,
100024661,2017-02-02 19:00,1.0,,,,121,139,260,,,,,,,
100024661,2017-02-02 20:00,1.0,,,,69,67,136,,,,,,,
100024661,2017-02-02 21:00,1.0,,,,49,50,99,,,,,,,
100024661,2017-02-02 22:00,1.0,,,,47,48,95,,,,,,,
100024661,2017-02-02 23:00,1.0,,,,31,28,59,,,,,,,
100024661,2017-02-03 00:00,1.0,,,,20,21,41,,,,,,,
100024661,2017-02-03 01:00,1.0,,,,17,11,28,,,,,,,
100024661,2017-02-03 02:00,1.0,,,,12,7,19,,,,,,,
100024661,2017-02-03 03:00,1.0,,,,2,5,7,,,,,,,
100024661,2017-02-03 04:00,1.0,,,,0,1,1,,,,,,,
100024661,2017-02-03 05:00,1.0,,,,7,13,20,,,,,,,
100024661,2017-02-03 06:00,1.0,,,,18,27,45,,,,,,,
100024661,2017-02-03 07:00,1.0,,,,48,63,111,,,,,,,
100024661,2017-02-03 08:00,1.0,,,,131,216,347,,,,,,,
100024661,2017-02-03 09:00,1.0,,,,163,203,366,,,,,,,
100024661,2017-02-03 10:00,1.0,,,,70,90,160,,,,,,,
100024661,2017-02-03 11:00,1.0,,,,74,68,142,,,,,,,
100024661,2017-02-03 12:00,1.0,,,,84,79,163,,,,,,,
100024661,2017-02-03 13:00,1.0,,,,75,62,137,,,,,,,
100024661,2017-02-03 14:00,1.0,,,,83,70,153,,,,,,,
100024661,2017-02-03 15:00,1.0,,,,137,106,243,,,,,,,
100024661,2017-02-03 16:00,1.0,,,,138,107,245,,,,,,,
100024661,2017-02-03 17:00,1.0,,,,152,117,269,,,,,,,
100024661,2017-02-03 18:00,1.0,,,,178,135,313,,,,,,,
100024661,2017-02-03 19:00,1.0,,,,112,103,215,,,,,,,
100024661,2017-02-03 20:00,1.0,,,,68,69,137,,,,,,,
100024661,2017-02-03 21:00,1.0,,,,47,50,97,,,,,,,
100024661,2017-02-03 22:00,1.0,,,,36,50,86,,,,,,,
100024661,2017-02-03 23:00,1.0,,,,25,46,71,,,,,,,
100024661,2017-02-04 00:00,1.0,,,,28,24,52,,,,,,,
100024661,2017-02-04 01:00,1.0,,,,18,22,40,,,,,,,
100024661,2017-02-04 02:00,1.0,,,,17,21,38,,,,,,,
100024661,2017-02-04 03:00,1.0,,,,13,7,20,,,,,,,
100024661,2017-02-04 04:00,1.0,,,,7,3,10,,,,,,,
100024661,2017-02-04 05:00,1.0,,,,5,5,10,,,,,,,
100024661,2017-02-04 06:00,1.0,,,,9,8,17,,,,,,,
100024661,2017-02-04 07:00,1.0,,,,10,6,16,,,,,,,
100024661,2017-02-04 08:00,1.0,,,,14,13,27,,,,,,,
100024661,2017-02-04 09:00,1.0,,,,39,19,58,,,,,,,
100024661,2017-02-04 10:00,1.0,,,,44,34,78,,,,,,,
100024661,2017-02-04 11:00,1.0,,,,62,48,110,,,,,,,
100024661,2017-02-04 12:00,1.0,,,,60,48,108,,,,,,,
100024661,2017-02-04 13:00,1.0,,,,63,66,129,,,,,,,
100024661,2017-02-04 14:00,1.0,,,,91,71,162,,,,,,,
100024661,2017-02-04 15:00,1.0,,,,87,79,166,,,,,,,
100024661,2017-02-04 16:00,1.0,,,,78,95,173,,,,,,,
100024661,2017-02-04 17:00,1.0,,,,59,83,142,,,,,,,
100024661,2017-02-04 18:00,1.0,,,,59,99,158,,,,,,,
100024661,2017-02-04 19:00,1.0,,,,55,73,128,,,,,,,
100024661,2017-02-04 20:00,1.0,,,,41,49,90,,,,,,,
100024661,2017-02-04 21:00,1.0,,,,30,29,59,,,,,,,
100024661,2017-02-04 22:00,1.0,,,,33,22,55,,,,,,,
100024661,2017-02-04 23:00,1.0,,,,31,34,65,,,,,,,
100024661,2017-02-05 00:00,1.0,,,,29,22,51,,,,,,,
100024661,2017-02-05 01:00,1.0,,,,19,27,46,,,,,,,
100024661,2017-02-05 02:00,1.0,,,,14,11,25,,,,,,,
100024661,2017-02-05 03:00,1.0,,,,24,8,32,,,,,,,
100024661,2017-02-05 04:00,1.0,,,,10,11,21,,,,,,,
100024661,2017-02-05 05:00,1.0,,,,5,7,12,,,,,,,
100024661,2017-02-05 06:00,1.0,,,,8,8,16,,,,,,,
100024661,2017-02-05 07:00,1.0,,,,8,3,11,,,,,,,
100024661,2017-02-05 08:00,1.0,,,,12,9,21,,,,,,,
100024661,2017-02-05 09:00,1.0,,,,23,17,40,,,,,,,
100024661,2017-02-05 10:00,1.0,,,,27,28,55,,,,,,,
100024661,2017-02-05 11:00,1.0,,,,26,26,52,,,,,,,
100024661,2017-02-05 12:00,1.0,,,,30,37,67,,,,,,,
100024661,2017-02-05 13:00,1.0,,,,38,49,87,,,,,,,
100024661,2017-02-05 14:00,1.0,,,,47,59,106,,,,,,,
100024661,2017-02-05 15:00,1.0,,,,61,58,119,,,,,,,
100024661,2017-02-05 16:00,1.0,,,,55,72,127,,,,,,,
100024661,2017-02-05 17:00,1.0,,,,65,49,114,,,,,,,
100024661,2017-02-05 18:00,1.0,,,,56,54,110,,,,,,,
100024661,2017-02-05 19:00,1.0,,,,63,39,102,,,,,,,
100024661,2017-02-05 20:00,1.0,,,,42,36,78,,,,,,,
100024661,2017-02-05 21:00,1.0,,,,26,31,57,,,,,,,
100024661,2017-02-05 22:00,1.0,,,,30,41,71,,,,,,,
100024661,2017-02-05 23:00,1.0,,,,21,19,40,,,,,,,
100024661,2017-02-06 00:00,1.0,,,,10,10,20,,,,,,,
100024661,2017-02-06 01:00,1.0,,,,6,8,14,,,,,,,
100024661,2017-02-06 02:00,1.0,,,,5,4,9,,,,,,,
100024661,2017-02-06 03:00,1.0,,,,4,2,6,,,,,,,
100024661,2017-02-06 04:00,1.0,,,,0,8,8,,,,,,,
100024661,2017-02-06 05:00,1.0,,,,7,15,22,,,,,,,
100024661,2017-02-06 06:00,1.0,,,,24,32,56,,,,,,,
100024661,2017-02-06 07:00,1.0,,,,71,132,203,,,,,,,
100024661,2017-02-06 08:00,1.0,,,,188,328,516,,,,,,,
100024661,2017-02-06 09:00,1.0,,,,229,275,504,,,,,,,
100024661,2017-02-06 10:00,1.0,,,,85,119,204,,,,,,,
100024661,2017-02-06 11:00,1.0,,,,91,76,167,,,,,,,
100024661,2017-02-06 12:00,1.0,,,,79,80,159,,,,,,,
100024661,2017-02-06 13:00,1.0,,,,94,97,191,,,,,,,
100024661,2017-02-06 14:00,1.0,,,,121,98,219,,,,,,,
100024661,2017-02-06 15:00,1.0,,,,167,121,288,,,,,,,
100024661,2017-02-06 16:00,1.0,,,,182,123,305,,,,,,,
100024661,2017-02-06 17:00,1.0,,,,223,139,362,,,,,,,
100024661,2017-02-06 18:00,1.0,,,,288,243,531,,,,,,,
100024661,2017-02-06 19:00,1.0,,,,193,137,330,,,,,,,
100024661,2017-02-06 20:00,1.0,,,,91,103,194,,,,,,,
100024661,2017-02-06 21:00,1.0,,,,58,56,114,,,,,,,
100024661,2017-02-06 22:00,1.0,,,,55,61,116,,,,,,,
100024661,2017-02-06 23:00,1.0,,,,18,26,44,,,,,,,
100024661,2017-02-07 00:00,1.0,,,,14,19,33,,,,,,,
100024661,2017-02-07 01:00,1.0,,,,8,5,13,,,,,,,
100024661,2017-02-07 02:00,1.0,,,,5,2,7,,,,,,,
100024661,2017-02-07 03:00,1.0,,,,2,2,4,,,,,,,
100024661,2017-02-07 04:00,1.0,,,,1,3,4,,,,,,,
100024661,2017-02-07 05:00,1.0,,,,6,17,23,,,,,,,
100024661,2017-02-07 06:00,1.0,,,,23,36,59,,,,,,,
100024661,2017-02-07 07:00,1.0,,,,72,116,188,,,,,,,
100024661,2017-02-07 08:00,1.0,,,,230,362,592,,,,,,,
100024661,2017-02-07 09:00,1.0,,,,221,275,496,,,,,,,
100024661,2017-02-07 10:00,1.0,,,,108,133,241,,,,,,,
100024661,2017-02-07 11:00,1.0,,,,77,88,165,,,,,,,
100024661,2017-02-07 12:00,1.0,,,,97,84,181,,,,,,,
100024661,2017-02-07 13:00,1.0,,,,107,89,196,,,,,,,
100024661,2017-02-07 14:00,1.0,,,,130,96,226,,,,,,,
100024661,2017-02-07 15:00,1.0,,,,150,115,265,,,,,,,
100024661,2017-02-07 16:00,1.0,,,,157,118,275,,,,,,,
100024661,2017-02-07 17:00,1.0,,,,229,164,393,,,,,,,
100024661,2017-02-07 18:00,1.0,,,,314,233,547,,,,,,,
100024661,2017-02-07 19:00,1.0,,,,206,167,373,,,,,,,
100024661,2017-02-07 20:00,1.0,,,,83,82,165,,,,,,,
100024661,2017-02-07 21:00,1.0,,,,67,71,138,,,,,,,
100024661,2017-02-07 22:00,1.0,,,,46,55,101,,,,,,,
100024661,2017-02-07 23:00,1.0,,,,37,44,81,,,,,,,
100024661,2017-02-08 00:00,1.0,,,,17,22,39,,,,,,,
100024661,2017-02-08 01:00,1.0,,,,10,11,21,,,,,,,
100024661,2017-02-08 02:00,1.0,,,,5,6,11,,,,,,,
100024661,2017-02-08 03:00,1.0,,,,5,5,10,,,,,,,
100024661,2017-02-08 04:00,1.0,,,,4,3,7,,,,,,,
100024661,2017-02-08 05:00,1.0,,,,7,19,26,,,,,,,
100024661,2017-02-08 06:00,1.0,,,,15,34,49,,,,,,,
100024661,2017-02-08 07:00,1.0,,,,76,103,179,,,,,,,
100024661,2017-02-08 08:00,1.0,,,,173,312,485,,,,,,,
100024661,2017-02-08 09:00,1.0,,,,197,261,458,,,,,,,
100024661,2017-02-08 10:00,1.0,,,,99,104,203,,,,,,,
100024661,2017-02-08 11:00,1.0,,,,67,88,155,,,,,,,
100024661,2017-02-08 12:00,1.0,,,,84,82,166,,,,,,,
100024661,2017-02-08 13:00,1.0,,,,90,71,161,,,,,,,
100024661,2017-02-08 14:00,1.0,,,,113,103,216,,,,,,,
100024661,2017-02-08 15:00,1.0,,,,130,105,235,,,,,,,
100024661,2017-02-08 16:00,1.0,,,,180,116,296,,,,,,,
100024661,2017-02-08 17:00,1.0,,,,222,147,369,,,,,,,
100024661,2017-02-08 18:00,1.0,,,,240,209,449,,,,,,,
100024661,2017-02-08 19:00,1.0,,,,168,135,303,,,,,,,
100024661,2017-02-08 20:00,1.0,,,,90,98,188,,,,,,,
100024661,2017-02-08 21:00,1.0,,,,60,62,122,,,,,,,
100024661,2017-02-08 22:00,1.0,,,,48,43,91,,,,,,,
100024661,2017-02-08 23:00,1.0,,,,23,32,55,,,,,,,
100024661,2017-02-09 00:00,1.0,,,,20,25,45,,,,,,,
100024661,2017-02-09 01:00,1.0,,,,3,6,9,,,,,,,
100024661,2017-02-09 02:00,1.0,,,,5,8,13,,,,,,,
100024661,2017-02-09 03:00,1.0,,,,3,1,4,,,,,,,
100024661,2017-02-09 04:00,1.0,,,,4,4,8,,,,,,,
100024661,2017-02-09 05:00,1.0,,,,6,14,20,,,,,,,
100024661,2017-02-09 06:00,1.0,,,,18,31,49,,,,,,,
100024661,2017-02-09 07:00,1.0,,,,71,109,180,,,,,,,
100024661,2017-02-09 08:00,1.0,,,,155,308,463,,,,,,,
100024661,2017-02-09 09:00,1.0,,,,213,241,454,,,,,,,
100024661,2017-02-09 10:00,1.0,,,,92,87,179,,,,,,,
100024661,2017-02-09 11:00,1.0,,,,97,76,173,,,,,,,
100024661,2017-02-09 12:00,1.0,,,,87,87,174,,,,,,,
100024661,2017-02-09 13:00,1.0,,,,104,89,193,,,,,,,
100024661,2017-02-09 14:00,1.0,,,,143,108,251,,,,,,,
100024661,2017-02-09 15:00,1.0,,,,131,120,251,,,,,,,
100024661,2017-02-09 16:00,1.0,,,,185,126,311,,,,,,,
100024661,2017-02-09 17:00,1.0,,,,224,142,366,,,,,,,
100024661,2017-02-09 18:00,1.0,,,,260,199,459,,,,,,,
100024661,2017-02-09 19:00,1.0,,,,176,131,307,,,,,,,
100024661,2017-02-09 20:00,1.0,,,,81,89,170,,,,,,,
100024661,2017-02-09 21:00,1.0,,,,74,59,133,,,,,,,
100024661,2017-02-09 22:00,1.0,,,,45,51,96,,,,,,,
100024661,2017-02-09 23:00,1.0,,,,36,38,74,,,,,,,
100024661,2017-02-10 00:00,1.0,,,,21,19,40,,,,,,,
100024661,2017-02-10 01:00,1.0,,,,11,20,31,,,,,,,
100024661,2017-02-10 02:00,1.0,,,,7,11,18,,,,,,,
100024661,2017-02-10 03:00,1.0,,,,8,5,13,,,,,,,
100024661,2017-02-10 04:00,1.0,,,,4,7,11,,,,,,,
100024661,2017-02-10 05:00,1.0,,,,7,14,21,,,,,,,
100024661,2017-02-10 06:00,1.0,,,,20,30,50,,,,,,,
100024661,2017-02-10 07:00,1.0,,,,69,94,163,,,,,,,
100024661,2017-02-10 08:00,1.0,,,,130,263,393,,,,,,,
100024661,2017-02-10 09:00,1.0,,,,179,197,376,,,,,,,
100024661,2017-02-10 10:00,1.0,,,,99,106,205,,,,,,,
100024661,2017-02-10 11:00,1.0,,,,70,62,132,,,,,,,
100024661,2017-02-10 12:00,1.0,,,,95,68,163,,,,,,,
100024661,2017-02-10 13:00,1.0,,,,105,83,188,,,,,,,
100024661,2017-02-10 14:00,1.0,,,,119,107,226,,,,,,,
100024661,2017-02-10 15:00,1.0,,,,153,133,286,,,,,,,
100024661,2017-02-10 16:00,1.0,,,,171,146,317,,,,,,,
100024661,2017-02-10 17:00,1.0,,,,171,119,290,,,,,,,
100024661,2017-02-10 18:00,1.0,,,,212,176,388,,,,,,,
100024661,2017-02-10 19:00,1.0,,,,121,110,231,,,,,,,
100024661,2017-02-10 20:00,1.0,,,,78,79,157,,,,,,,
100024661,2017-02-10 21:00,1.0,,,,45,55,100,,,,,,,
100024661,2017-02-10 22:00,1.0,,,,46,36,82,,,,,,,
100024661,2017-02-10 23:00,1.0,,,,31,41,72,,,,,,,
100024661,2017-02-11 00:00,1.0,,,,35,26,61,,,,,,,
100024661,2017-02-11 01:00,1.0,,,,35,19,54,,,,,,,
100024661,2017-02-11 02:00,1.0,,,,22,15,37,,,,,,,
100024661,2017-02-11 03:00,1.0,,,,13,10,23,,,,,,,
100024661,2017-02-11 04:00,1.0,,,,11,2,13,,,,,,,
100024661,2017-02-11 05:00,1.0,,,,9,4,13,,,,,,,
100024661,2017-02-11 06:00,1.0,,,,10,4,14,,,,,,,
100024661,2017-02-11 07:00,1.0,,,,18,9,27,,,,,,,
100024661,2017-02-11 08:00,1.0,,,,17,14,31,,,,,,,
100024661,2017-02-11 09:00,1.0,,,,32,38,70,,,,,,,
100024661,2017-02-11 10:00,1.0,,,,47,46,93,,,,,,,
100024661,2017-02-11 11:00,1.0,,,,74,47,121,,,,,,,
100024661,2017-02-11 12:00,1.0,,,,61,51,112,,,,,,,
100024661,2017-02-11 13:00,1.0,,,,73,65,138,,,,,,,
100024661,2017-02-11 14:00,1.0,,,,73,84,157,,,,,,,
100024661,2017-02-11 15:00,1.0,,,,85,75,160,,,,,,,
100024661,2017-02-11 16:00,1.0,,,,88,93,181,,,,,,,
100024661,2017-02-11 17:00,1.0,,,,79,68,147,,,,,,,
100024661,2017-02-11 18:00,1.0,,,,72,70,142,,,,,,,
100024661,2017-02-11 19:00,1.0,,,,62,69,131,,,,,,,
100024661,2017-02-11 20:00,1.0,,,,40,56,96,,,,,,,
100024661,2017-02-11 21:00,1.0,,,,37,32,69,,,,,,,
100024661,2017-02-11 22:00,1.0,,,,33,26,59,,,,,,,
100024661,2017-02-11 23:00,1.0,,,,27,28,55,,,,,,,
100024661,2017-02-12 00:00,1.0,,,,25,28,53,,,,,,,
100024661,2017-02-12 01:00,1.0,,,,21,21,42,,,,,,,
100024661,2017-02-12 02:00,1.0,,,,15,12,27,,,,,,,
100024661,2017-02-12 03:00,1.0,,,,16,8,24,,,,,,,
100024661,2017-02-12 04:00,1.0,,,,6,3,9,,,,,,,
100024661,2017-02-12 05:00,1.0,,,,6,1,7,,,,,,,
100024661,2017-02-12 06:00,1.0,,,,6,6,12,,,,,,,
100024661,2017-02-12 07:00,1.0,,,,11,2,13,,,,,,,
100024661,2017-02-12 08:00,1.0,,,,10,12,22,,,,,,,
100024661,2017-02-12 09:00,1.0,,,,17,15,32,,,,,,,
100024661,2017-02-12 10:00,1.0,,,,29,28,57,,,,,,,
100024661,2017-02-12 11:00,1.0,,,,46,42,88,,,,,,,
100024661,2017-02-12 12:00,1.0,,,,49,33,82,,,,,,,
100024661,2017-02-12 13:00,1.0,,,,52,54,106,,,,,,,
100024661,2017-02-12 14:00,1.0,,,,54,56,110,,,,,,,
100024661,2017-02-12 15:00,1.0,,,,71,68,139,,,,,,,
100024661,2017-02-12 16:00,1.0,,,,63,43,106,,,,,,,
100024661,2017-02-12 17:00,1.0,,,,45,48,93,,,,,,,
100024661,2017-02-12 18:00,1.0,,,,60,37,97,,,,,,,
100024661,2017-02-12 19:00,1.0,,,,55,48,103,,,,,,,
100024661,2017-02-12 20:00,1.0,,,,32,28,60,,,,,,,
100024661,2017-02-12 21:00,1.0,,,,32,34,66,,,,,,,
100024661,2017-02-12 22:00,1.0,,,,29,54,83,,,,,,,
100024661,2017-02-12 23:00,1.0,,,,17,27,44,,,,,,,
100024661,2017-02-13 00:00,1.0,,,,10,28,38,,,,,,,
100024661,2017-02-13 01:00,1.0,,,,4,5,9,,,,,,,
100024661,2017-02-13 02:00,1.0,,,,9,4,13,,,,,,,
100024661,2017-02-13 03:00,1.0,,,,4,4,8,,,,,,,
100024661,2017-02-13 04:00,1.0,,,,0,2,2,,,,,,,
100024661,2017-02-13 05:00,1.0,,,,7,15,22,,,,,,,
100024661,2017-02-13 06:00,1.0,,,,15,47,62,,,,,,,
100024661,2017-02-13 07:00,1.0,,,,66,118,184,,,,,,,
100024661,2017-02-13 08:00,1.0,,,,192,361,553,,,,,,,
100024661,2017-02-13 09:00,1.0,,,,190,276,466,,,,,,,
100024661,2017-02-13 10:00,1.0,,,,89,113,202,,,,,,,
100024661,2017-02-13 11:00,1.0,,,,99,90,189,,,,,,,
100024661,2017-02-13 12:00,1.0,,,,70,88,158,,,,,,,
100024661,2017-02-13 13:00,1.0,,,,111,97,208,,,,,,,
100024661,2017-02-13 14:00,1.0,,,,129,88,217,,,,,,,
100024661,2017-02-13 15:00,1.0,,,,180,143,323,,,,,,,
100024661,2017-02-13 16:00,1.0,,,,181,142,323,,,,,,,
100024661,2017-02-13 17:00,1.0,,,,237,134,371,,,,,,,
100024661,2017-02-13 18:00,1.0,,,,266,191,457,,,,,,,
100024661,2017-02-13 19:00,1.0,,,,178,185,363,,,,,,,
100024661,2017-02-13 20:00,1.0,,,,99,97,196,,,,,,,
100024661,2017-02-13 21:00,1.0,,,,72,61,133,,,,,,,
100024661,2017-02-13 22:00,1.0,,,,66,52,118,,,,,,,
100024661,2017-02-13 23:00,1.0,,,,40,32,72,,,,,,,
100024661,2017-02-14 00:00,1.0,,,,18,29,47,,,,,,,
100024661,2017-02-14 01:00,1.0,,,,8,20,28,,,,,,,
100024661,2017-02-14 02:00,1.0,,,,3,2,5,,,,,,,
100024661,2017-02-14 03:00,1.0,,,,7,11,18,,,,,,,
100024661,2017-02-14 04:00,1.0,,,,2,2,4,,,,,,,
100024661,2017-02-14 05:00,1.0,,,,12,18,30,,,,,,,
100024661,2017-02-14 06:00,1.0,,,,20,45,65,,,,,,,
100024661,2017-02-14 07:00,1.0,,,,70,138,208,,,,,,,
100024661,2017-02-14 08:00,1.0,,,,202,368,570,,,,,,,
100024661,2017-02-14 09:00,1.0,,,,281,297,578,,,,,,,
100024661,2017-02-14 10:00,1.0,,,,129,129,258,,,,,,,
100024661,2017-02-14 11:00,1.0,,,,102,75,177,,,,,,,
100024661,2017-02-14 12:00,1.0,,,,114,131,245,,,,,,,
100024661,2017-02-14 13:00,1.0,,,,111,104,215,,,,,,,
100024661,2017-02-14 14:00,1.0,,,,128,123,251,,,,,,,
100024661,2017-02-14 15:00,1.0,,,,175,147,322,,,,,,,
100024661,2017-02-14 16:00,1.0,,,,195,162,357,,,,,,,
100024661,2017-02-14 17:00,1.0,,,,285,177,462,,,,,,,
100024661,2017-02-14 18:00,1.0,,,,284,238,522,,,,,,,
100024661,2017-02-14 19:00,1.0,,,,194,180,374,,,,,,,
100024661,2017-02-14 20:00,1.0,,,,107,105,212,,,,,,,
100024661,2017-02-14 21:00,1.0,,,,77,86,163,,,,,,,
100024661,2017-02-14 22:00,1.0,,,,71,74,145,,,,,,,
100024661,2017-02-14 23:00,1.0,,,,44,31,75,,,,,,,
100024661,2017-02-15 00:00,1.0,,,,33,48,81,,,,,,,
100024661,2017-02-15 01:00,1.0,,,,14,13,27,,,,,,,
100024661,2017-02-15 02:00,1.0,,,,8,10,18,,,,,,,
100024661,2017-02-15 03:00,1.0,,,,6,8,14,,,,,,,
100024661,2017-02-15 04:00,1.0,,,,2,2,4,,,,,,,
100024661,2017-02-15 05:00,1.0,,,,5,18,23,,,,,,,
100024661,2017-02-15 06:00,1.0,,,,22,44,66,,,,,,,
100024661,2017-02-15 07:00,1.0,,,,91,155,246,,,,,,,
100024661,2017-02-15 08:00,1.0,,,,220,415,635,,,,,,,
100024661,2017-02-15 09:00,1.0,,,,256,332,588,,,,,,,
100024661,2017-02-15 10:00,1.0,,,,129,130,259,,,,,,,
100024661,2017-02-15 11:00,1.0,,,,104,107,211,,,,,,,
100024661,2017-02-15 12:00,1.0,,,,130,112,242,,,,,,,
100024661,2017-02-15 13:00,1.0,,,,158,116,274,,,,,,,
100024661,2017-02-15 14:00,1.0,,,,172,138,310,,,,,,,
100024661,2017-02-15 15:00,1.0,,,,195,175,370,,,,,,,
100024661,2017-02-15 16:00,1.0,,,,267,212,479,,,,,,,
100024661,2017-02-15 17:00,1.0,,,,296,221,517,,,,,,,
100024661,2017-02-15 18:00,1.0,,,,323,280,603,,,,,,,
100024661,2017-02-15 19:00,1.0,,,,265,180,445,,,,,,,
100024661,2017-02-15 20:00,1.0,,,,106,112,218,,,,,,,
100024661,2017-02-15 21:00,1.0,,,,100,101,201,,,,,,,
100024661,2017-02-15 22:00,1.0,,,,79,80,159,,,,,,,
100024661,2017-02-15 23:00,1.0,,,,56,73,129,,,,,,,
100024661,2017-02-16 00:00,1.0,,,,28,50,78,,,,,,,
100024661,2017-02-16 01:00,1.0,,,,10,18,28,,,,,,,
100024661,2017-02-16 02:00,1.0,,,,12,8,20,,,,,,,
100024661,2017-02-16 03:00,1.0,,,,5,4,9,,,,,,,
100024661,2017-02-16 04:00,1.0,,,,5,5,10,,,,,,,
100024661,2017-02-16 05:00,1.0,,,,9,15,24,,,,,,,
100024661,2017-02-16 06:00,1.0,,,,34,44,78,,,,,,,
100024661,2017-02-16 07:00,1.0,,,,90,158,248,,,,,,,
100024661,2017-02-16 08:00,1.0,,,,271,422,693,,,,,,,
100024661,2017-02-16 09:00,1.0,,,,283,345,628,,,,,,,
100024661,2017-02-16 10:00,1.0,,,,118,157,275,,,,,,,
100024661,2017-02-16 11:00,1.0,,,,126,116,242,,,,,,,
100024661,2017-02-16 12:00,1.0,,,,159,141,300,,,,,,,
100024661,2017-02-16 13:00,1.0,,,,139,144,283,,,,,,,
100024661,2017-02-16 14:00,1.0,,,,169,170,339,,,,,,,
100024661,2017-02-16 15:00,1.0,,,,249,200,449,,,,,,,
100024661,2017-02-16 16:00,1.0,,,,274,197,471,,,,,,,
100024661,2017-02-16 17:00,1.0,,,,270,215,485,,,,,,,
100024661,2017-02-16 18:00,1.0,,,,345,306,651,,,,,,,
100024661,2017-02-16 19:00,1.0,,,,268,228,496,,,,,,,
100024661,2017-02-16 20:00,1.0,,,,130,145,275,,,,,,,
100024661,2017-02-16 21:00,1.0,,,,104,87,191,,,,,,,
100024661,2017-02-16 22:00,1.0,,,,85,112,197,,,,,,,
100024661,2017-02-16 23:00,1.0,,,,70,66,136,,,,,,,
100024661,2017-02-17 00:00,1.0,,,,41,53,94,,,,,,,
100024661,2017-02-17 01:00,1.0,,,,23,28,51,,,,,,,
100024661,2017-02-17 02:00,1.0,,,,22,11,33,,,,,,,
100024661,2017-02-17 03:00,1.0,,,,8,8,16,,,,,,,
100024661,2017-02-17 04:00,1.0,,,,4,8,12,,,,,,,
100024661,2017-02-17 05:00,1.0,,,,11,27,38,,,,,,,
100024661,2017-02-17 06:00,1.0,,,,25,42,67,,,,,,,
100024661,2017-02-17 07:00,1.0,,,,88,133,221,,,,,,,
100024661,2017-02-17 08:00,1.0,,,,161,323,484,,,,,,,
100024661,2017-02-17 09:00,1.0,,,,145,211,356,,,,,,,
100024661,2017-02-17 10:00,1.0,,,,98,104,202,,,,,,,
100024661,2017-02-17 11:00,1.0,,,,84,110,194,,,,,,,
100024661,2017-02-17 12:00,1.0,,,,102,73,175,,,,,,,
100024661,2017-02-17 13:00,1.0,,,,132,90,222,,,,,,,
100024661,2017-02-17 14:00,1.0,,,,136,111,247,,,,,,,
100024661,2017-02-17 15:00,1.0,,,,176,136,312,,,,,,,
100024661,2017-02-17 16:00,1.0,,,,203,131,334,,,,,,,
100024661,2017-02-17 17:00,1.0,,,,200,115,315,,,,,,,
100024661,2017-02-17 18:00,1.0,,,,197,164,361,,,,,,,
100024661,2017-02-17 19:00,1.0,,,,163,121,284,,,,,,,
100024661,2017-02-17 20:00,1.0,,,,84,72,156,,,,,,,
100024661,2017-02-17 21:00,1.0,,,,60,58,118,,,,,,,
100024661,2017-02-17 22:00,1.0,,,,42,76,118,,,,,,,
100024661,2017-02-17 23:00,1.0,,,,46,61,107,,,,,,,
100024661,2017-02-18 00:00,1.0,,,,38,48,86,,,,,,,
100024661,2017-02-18 01:00,1.0,,,,29,30,59,,,,,,,
100024661,2017-02-18 02:00,1.0,,,,25,27,52,,,,,,,
100024661,2017-02-18 03:00,1.0,,,,11,9,20,,,,,,,
100024661,2017-02-18 04:00,1.0,,,,10,7,17,,,,,,,
100024661,2017-02-18 05:00,1.0,,,,6,7,13,,,,,,,
100024661,2017-02-18 06:00,1.0,,,,10,6,16,,,,,,,
100024661,2017-02-18 07:00,1.0,,,,17,8,25,,,,,,,
100024661,2017-02-18 08:00,1.0,,,,33,20,53,,,,,,,
100024661,2017-02-18 09:00,1.0,,,,50,44,94,,,,,,,
100024661,2017-02-18 10:00,1.0,,,,47,45,92,,,,,,,
100024661,2017-02-18 11:00,1.0,,,,62,47,109,,,,,,,
100024661,2017-02-18 12:00,1.0,,,,75,60,135,,,,,,,
100024661,2017-02-18 13:00,1.0,,,,86,79,165,,,,,,,
100024661,2017-02-18 14:00,1.0,,,,79,63,142,,,,,,,
100024661,2017-02-18 15:00,1.0,,,,95,96,191,,,,,,,
100024661,2017-02-18 16:00,1.0,,,,96,107,203,,,,,,,
100024661,2017-02-18 17:00,1.0,,,,86,75,161,,,,,,,
100024661,2017-02-18 18:00,1.0,,,,93,103,196,,,,,,,
100024661,2017-02-18 19:00,1.0,,,,79,97,176,,,,,,,
100024661,2017-02-18 20:00,1.0,,,,71,65,136,,,,,,,
100024661,2017-02-18 21:00,1.0,,,,38,55,93,,,,,,,
100024661,2017-02-18 22:00,1.0,,,,35,61,96,,,,,,,
100024661,2017-02-18 23:00,1.0,,,,38,47,85,,,,,,,
100024661,2017-02-19 00:00,1.0,,,,39,50,89,,,,,,,
100024661,2017-02-19 01:00,1.0,,,,21,25,46,,,,,,,
100024661,2017-02-19 02:00,1.0,,,,26,26,52,,,,,,,
100024661,2017-02-19 03:00,1.0,,,,16,19,35,,,,,,,
100024661,2017-02-19 04:00,1.0,,,,17,16,33,,,,,,,
100024661,2017-02-19 05:00,1.0,,,,6,5,11,,,,,,,
100024661,2017-02-19 06:00,1.0,,,,18,5,23,,,,,,,
100024661,2017-02-19 07:00,1.0,,,,12,5,17,,,,,,,
100024661,2017-02-19 08:00,1.0,,,,21,6,27,,,,,,,
100024661,2017-02-19 09:00,1.0,,,,39,21,60,,,,,,,
100024661,2017-02-19 10:00,1.0,,,,49,39,88,,,,,,,
100024661,2017-02-19 11:00,1.0,,,,47,37,84,,,,,,,
100024661,2017-02-19 12:00,1.0,,,,56,61,117,,,,,,,
100024661,2017-02-19 13:00,1.0,,,,96,88,184,,,,,,,
100024661,2017-02-19 14:00,1.0,,,,102,100,202,,,,,,,
100024661,2017-02-19 15:00,1.0,,,,77,87,164,,,,,,,
100024661,2017-02-19 16:00,1.0,,,,72,71,143,,,,,,,
100024661,2017-02-19 17:00,1.0,,,,73,82,155,,,,,,,
100024661,2017-02-19 18:00,1.0,,,,56,76,132,,,,,,,
100024661,2017-02-19 19:00,1.0,,,,69,52,121,,,,,,,
100024661,2017-02-19 20:00,1.0,,,,43,42,85,,,,,,,
100024661,2017-02-19 21:00,1.0,,,,23,36,59,,,,,,,
100024661,2017-02-19 22:00,1.0,,,,34,36,70,,,,,,,
100024661,2017-02-19 23:00,1.0,,,,13,20,33,,,,,,,
100024661,2017-02-20 00:00,1.0,,,,18,27,45,,,,,,,
100024661,2017-02-20 01:00,1.0,,,,10,9,19,,,,,,,
100024661,2017-02-20 02:00,1.0,,,,3,2,5,,,,,,,